DRI Storm Peak Lab. Weather observations

Data are for 5 minute period ending at time listed.
 Day   Time    Ave.   Ave.  Ave.  Vector  Max.   Total    Baro.    Solar      Aerosol      Ave.  Ultrafine   Snow  
  of    of     Air    Rel.  Wind   Wind   Wind  Precip.   Pres.  Radiation   Aerosol      Ozone   Aerosol    Depth 
Year   Day     Temp.  Hum.  Speed  Dir.   Gust                               Ave.   Max.            Ave.           
2016   (MST)    F      %     mph   deg.    mph    in.      mb.     w/m2         #/cm3      ppbv    #/cm3      in.  
-------------------------------------------------------------------------------------------------------------------
 179    5:30   55.4    20    1.8   311     1.8   999.00    701.0    999.0    999000   999000   999.0    999000   999.0
 179    5:35   55.5    20    1.8   311     1.8   999.00    701.0    999.0    999000   999000   999.0    999000   999.0
 179    5:40   55.5    20    1.8   311     1.8   999.00    701.0    999.0    999000   999000   999.0    999000   999.0
 179    5:45   55.5    20    1.8   311     1.8   999.00    701.0    999.0    999000   999000   999.0    999000   999.0
 179    5:50   55.2    20    1.8   311     1.8   999.00    701.0    999.0    999000   999000   999.0    999000   999.0
 179    5:55   55.4    20    1.8   311     1.8   999.00    702.0    999.0    999000   999000   999.0    999000   999.0
 179    6:00   55.5    20    1.8   311     1.8   999.00    701.0    999.0    999000   999000   999.0    999000   999.0
 179    6:05   55.4    20    1.8   311     1.8   999.00    702.0    999.0    999000   999000   999.0    999000   999.0
 179    6:10   55.6    20    1.8   311     1.8   999.00    702.0    999.0    999000   999000   999.0    999000   999.0
 179    6:15   55.3    20    1.8   311     1.8   999.00    702.0    999.0    999000   999000   999.0    999000   999.0
 179    6:20   55.1    20    2.2   311     3.1   999.00    702.0    999.0    999000   999000   999.0    999000   999.0
 179    6:25   55.1    20    2.6   311     3.8   999.00    702.0    999.0    999000   999000   999.0    999000   999.0
 179    6:30   55.3    21    2.3   308     3.7   999.00    702.0    999.0    999000   999000   999.0    999000   999.0
 179    6:35   55.4    20    2.4   300     3.3   999.00    702.0    999.0    999000   999000   999.0    999000   999.0
 179    6:40   55.5    20    2.1   292     3.5   999.00    702.0    999.0    999000   999000   999.0    999000   999.0
 179    6:45   55.5    22    2.3   286     3.5   999.00    702.0    999.0    999000   999000   999.0    999000   999.0
 179    6:50   55.8    21    2.5   278     3.8   999.00    702.0    999.0    999000   999000   999.0    999000   999.0
 179    6:55   55.8    22    3.2   259     4.6   999.00    702.0    999.0    999000   999000   999.0    999000   999.0
 179    7:00   55.9    25    2.7   240     5.0   999.00    702.0    999.0    999000   999000   999.0    999000   999.0
 179    7:05   56.0    22    3.7   238     5.0   999.00    702.0    999.0    999000   999000   999.0    999000   999.0
 179    7:10   55.9    24    3.3   237     4.6   999.00    702.0    999.0    999000   999000   999.0    999000   999.0
 179    7:15   56.6    23    2.5   235     4.2   999.00    702.0    999.0    999000   999000   999.0    999000   999.0
 179    7:20   56.7    24    2.8   232     4.6   999.00    702.0    999.0    999000   999000   999.0    999000   999.0
 179    7:25   56.8    24    2.5   229     4.4   999.00    702.0    999.0    999000   999000   999.0    999000   999.0
 179    7:30   56.8    23    2.2   229     3.5   999.00    702.0    999.0    999000   999000   999.0    999000   999.0
 179    7:35   57.1    23    2.1   228     3.5   999.00    702.0    999.0    999000   999000   999.0    999000   999.0
 179    7:40   57.3    23    1.8   228     1.8   999.00    702.0    999.0    999000   999000   999.0    999000   999.0
 179    7:45   58.3    24    2.0   228     3.3   999.00    702.0    999.0    999000   999000   999.0    999000   999.0
 179    7:50   58.3    22    2.3   226     5.3   999.00    702.0    999.0    999000   999000   999.0    999000   999.0
 179    7:55   59.0    19    2.9   225     4.0   999.00    702.0    999.0    999000   999000   999.0    999000   999.0
 179    8:00   58.3    21    2.9   224     5.5   999.00    702.0    999.0    999000   999000   999.0    999000   999.0
 179    8:05   58.1    22    3.1   219     5.7   999.00    702.0    999.0    999000   999000   999.0    999000   999.0
 179    8:10   58.2    20    3.3   217     4.8   999.00    702.0    999.0    999000   999000   999.0    999000   999.0
 179    8:15   58.6    20    2.0   217     3.1   999.00    702.0    999.0    999000   999000   999.0    999000   999.0
 179    8:20   58.5    21    2.3   217     3.3   999.00    702.0    999.0    999000   999000   999.0    999000   999.0
 179    8:25   58.2    23    3.3   221     5.9   999.00    702.0    999.0    999000   999000   999.0    999000   999.0
 179    8:30   57.9    23    2.8   222     4.4   999.00    702.0    999.0    999000   999000   999.0    999000   999.0
 179    8:35   57.6    22    3.3   221     5.7   999.00    702.0    999.0    999000   999000   999.0    999000   999.0
 179    8:40   57.6    22    3.6   217     5.5   999.00    702.0    999.0    999000   999000   999.0    999000   999.0
 179    8:45   57.6    21    2.6   216     3.5   999.00    702.0    999.0    999000   999000   999.0    999000   999.0
 179    8:50   57.8    22    2.5   217     5.2   999.00    702.0    999.0    999000   999000   999.0    999000   999.0
 179    8:55   58.2    20    2.5   220     5.2   999.00    702.0    999.0    999000   999000   999.0    999000   999.0
 179    9:00   58.5    22    3.3   222     5.7   999.00    702.0    999.0    999000   999000   999.0    999000   999.0
 179    9:05   58.0    21    4.2   222     5.9   999.00    702.0    999.0    999000   999000   999.0    999000   999.0
 179    9:10   58.1    21    3.8   222     5.9   999.00    702.0    999.0    999000   999000   999.0    999000   999.0
 179    9:15   58.0    21    3.7   222     5.7   999.00    702.0    999.0    999000   999000   999.0    999000   999.0
 179    9:20   57.9    21    3.8   222     6.5   999.00    702.0    999.0    999000   999000   999.0    999000   999.0
 179    9:25   58.0    23    4.6   223     5.7   999.00    703.0    999.0    999000   999000   999.0    999000   999.0
 179    9:30   58.2    22    3.9   224     5.5   999.00    702.0    999.0    999000   999000   999.0    999000   999.0
 179    9:35   58.0    21    3.5   224     5.5   999.00    702.0    999.0    999000   999000   999.0    999000   999.0
 179    9:40   58.1    22    3.4   223     4.6   999.00    702.0    999.0    999000   999000   999.0    999000   999.0
 179    9:45   58.1    23    2.9   221     5.5   999.00    702.0    999.0    999000   999000   999.0    999000   999.0
 179    9:50   58.7    24    3.5   219     5.5   999.00    702.0    999.0    999000   999000   999.0    999000   999.0
 179    9:55   59.2    22    3.3   220     5.9   999.00    702.0    999.0    999000   999000   999.0    999000   999.0
 179   10:00   58.9    23    3.4   222     5.3   999.00    702.0    999.0    999000   999000   999.0    999000   999.0
 179   10:05   58.7    22    3.7   222     6.1   999.00    702.0    999.0    999000   999000   999.0    999000   999.0
 179   10:10   59.3    23    3.3   222     6.1   999.00    702.0    999.0    999000   999000   999.0    999000   999.0
 179   10:15   59.8    21    3.6   223     5.7   999.00    703.0    999.0    999000   999000   999.0    999000   999.0
 179   10:20   59.9    20    3.5   222     5.3   999.00    703.0    999.0    999000   999000   999.0    999000   999.0
 179   10:25   59.2    23    3.4   223     6.5   999.00    703.0    999.0    999000   999000   999.0    999000   999.0
 179   10:30   59.3    24    3.8   224     6.6   999.00    703.0    999.0    999000   999000   999.0    999000   999.0
 179   10:35   59.8    25    3.7   225     5.5   999.00    703.0    999.0    999000   999000   999.0    999000   999.0
 179   10:40   61.0    31    3.7   226     5.3   999.00    703.0    999.0    999000   999000   999.0    999000   999.0
 179   10:45   60.5    25    4.5   230     6.5   999.00    703.0    999.0    999000   999000   999.0    999000   999.0
 179   10:50   59.8    26    4.4   232     5.9   999.00    703.0    999.0    999000   999000   999.0    999000   999.0
 179   10:55   59.9    25    4.2   235     6.3   999.00    703.0    999.0    999000   999000   999.0    999000   999.0
 179   11:00   60.4    23    4.5   295     7.6   999.00    703.0    999.0    999000   999000   999.0    999000   999.0
 179   11:05   60.6    22    3.9   304     5.5   999.00    703.0    999.0    999000   999000   999.0    999000   999.0
 179   11:10   60.7    22    4.0   298     6.3   999.00    703.0    999.0    999000   999000   999.0    999000   999.0
 179   11:15   60.7    19    4.3   298     7.0   999.00    703.0    999.0    999000   999000   999.0    999000   999.0
 179   11:20   60.6    20    4.2   303     6.3   999.00    703.0    999.0    999000   999000   999.0    999000   999.0
 179   11:25   60.2    21    3.3   305     5.2   999.00    703.0    999.0    999000   999000   999.0    999000   999.0
 179   11:30   60.7    21    4.4   298     7.6   999.00    703.0    999.0    999000   999000   999.0    999000   999.0
 179   11:35   61.0    20    4.8   294     7.4   999.00    703.0    999.0    999000   999000   999.0    999000   999.0
 179   11:40   60.7    23    6.3   294     9.6   999.00    703.0    999.0    999000   999000   999.0    999000   999.0
 179   11:45   60.3    24    5.0   312     9.1   999.00    703.0    999.0    999000   999000   999.0    999000   999.0
 179   11:50   61.1    23    5.1   278     9.6   999.00    703.0    999.0    999000   999000   999.0    999000   999.0
 179   11:55   61.0    22    8.8   254    14.3   999.00    703.0    999.0    999000   999000   999.0    999000   999.0
 179   12:00   60.9    25    3.9   254     8.9   999.00    703.0    999.0    999000   999000   999.0    999000   999.0
 179   12:05   61.6    26    5.4   283     9.4   999.00    703.0    999.0    999000   999000   999.0    999000   999.0
 179   12:10   62.1    28    6.3   282    16.1   999.00    703.0    999.0    999000   999000   999.0    999000   999.0
 179   12:15   61.2    26    6.4   258    12.0   999.00    703.0    999.0    999000   999000   999.0    999000   999.0
 179   12:20   61.1    28    7.8   278    12.8   999.00    703.0    999.0    999000   999000   999.0    999000   999.0
 179   12:25   60.8    29    6.0   302    11.5   999.00    703.0    999.0    999000   999000   999.0    999000   999.0
 179   12:30   61.0    28    3.7   306     6.8   999.00    703.0    999.0    999000   999000   999.0    999000   999.0
 179   12:35   62.2    31    4.3   300     6.6   999.00    703.0    999.0    999000   999000   999.0    999000   999.0
 179   12:40   62.3    28    3.2   300     6.3   999.00    703.0    999.0    999000   999000   999.0    999000   999.0
 179   12:45   63.0    30    4.6   299     8.3   999.00    703.0    999.0    999000   999000   999.0    999000   999.0
 179   12:50   61.6    29    6.5   270    12.6   999.00    703.0    999.0    999000   999000   999.0    999000   999.0
 179   12:55   61.9    30    6.5   285     9.8   999.00    703.0    999.0    999000   999000   999.0    999000   999.0
 179   13:00   62.1    29    4.8   298     9.8   999.00    703.0    999.0    999000   999000   999.0    999000   999.0
 179   13:05   62.0    27    7.3   293    10.9   999.00    703.0    999.0    999000   999000   999.0    999000   999.0
 179   13:10   62.5    26    6.0   291     8.3   999.00    703.0    999.0    999000   999000   999.0    999000   999.0
 179   13:15   62.5    27    5.4   293     8.7   999.00    703.0    999.0    999000   999000   999.0    999000   999.0
 179   13:20   62.2    27    6.2   290    10.2   999.00    703.0    999.0    999000   999000   999.0    999000   999.0
 179   13:25   62.0    26    5.7   313     8.5   999.00    703.0    999.0    999000   999000   999.0    999000   999.0
 179   13:30   62.1    27    6.9   273    12.2   999.00    703.0    999.0    999000   999000   999.0    999000   999.0
 179   13:35   63.2    25    6.3   286    11.7   999.00    703.0    999.0    999000   999000   999.0    999000   999.0
 179   13:40   63.0    26    4.8   298     9.8   999.00    703.0    999.0    999000   999000   999.0    999000   999.0
 179   13:45   63.4    25    6.7   282    11.5   999.00    703.0    999.0    999000   999000   999.0    999000   999.0
 179   13:50   63.7    25    5.8   270    11.7   999.00    703.0    999.0    999000   999000   999.0    999000   999.0
 179   13:55   63.3    24    9.2   250    15.8   999.00    703.0    999.0    999000   999000   999.0    999000   999.0
 179   14:00   62.7    24    7.9   256    12.2   999.00    702.0    999.0    999000   999000   999.0    999000   999.0
 179   14:05   62.7    24    5.0   256     9.1   999.00    703.0    999.0    999000   999000   999.0    999000   999.0
 179   14:10   63.8    24    3.5   254     6.1   999.00    703.0    999.0    999000   999000   999.0    999000   999.0
 179   14:15   63.4    24    7.3   244    13.3   999.00    702.0    999.0    999000   999000   999.0    999000   999.0
 179   14:20   63.7    24    9.3   296    15.0   999.00    702.0    999.0    999000   999000   999.0    999000   999.0
 179   14:25   63.5    25    7.9   278    12.2   999.00    702.0    999.0    999000   999000   999.0    999000   999.0
 179   14:30   63.4    26    4.6   276     7.8   999.00    702.0    999.0    999000   999000   999.0    999000   999.0
 179   14:35   64.4    25    4.6   286     6.3   999.00    702.0    999.0    999000   999000   999.0    999000   999.0
 179   14:40   64.1    24    4.4   288     7.4   999.00    702.0    999.0    999000   999000   999.0    999000   999.0
 179   14:45   63.0    24    5.8   276    10.7   999.00    702.0    999.0    999000   999000   999.0    999000   999.0
 179   14:50   62.9    25    4.1   276     7.8   999.00    702.0    999.0    999000   999000   999.0    999000   999.0
 179   14:55   64.5    25    6.1   294    10.6   999.00    702.0    999.0    999000   999000   999.0    999000   999.0
 179   15:00   64.0    25    8.2   317    13.0   999.00    702.0    999.0    999000   999000   999.0    999000   999.0
 179   15:05   64.3    26    6.5   308     9.8   999.00    702.0    999.0    999000   999000   999.0    999000   999.0
 179   15:10   64.7    25    5.3   312     7.2   999.00    702.0    999.0    999000   999000   999.0    999000   999.0
 179   15:15   64.4    26    7.5   307    17.4   999.00    702.0    999.0    999000   999000   999.0    999000   999.0
 179   15:20   64.6    25    5.7   299     8.5   999.00    702.0    999.0    999000   999000   999.0    999000   999.0
 179   15:25   64.5    25    8.3   298    13.9   999.00    702.0    999.0    999000   999000   999.0    999000   999.0
 179   15:30   63.4    24    5.5   302     7.8   999.00    702.0    999.0    999000   999000   999.0    999000   999.0
 179   15:35   64.0    26    8.1   296    15.0   999.00    702.0    999.0    999000   999000   999.0    999000   999.0
 179   15:40   64.0    26    9.5   311    15.2   999.00    702.0    999.0    999000   999000   999.0    999000   999.0
 179   15:45   63.3    25    6.4   314    13.7   999.00    702.0    999.0    999000   999000   999.0    999000   999.0
 179   15:50   65.5    26    6.3   307    11.3   999.00    702.0    999.0    999000   999000   999.0    999000   999.0
 179   15:55   64.5    24    6.4   304    11.5   999.00    702.0    999.0    999000   999000   999.0    999000   999.0
 179   16:00   64.5    25    6.0   304    13.5   999.00    702.0    999.0    999000   999000   999.0    999000   999.0
 179   16:05   63.7    24    8.2   325    13.0   999.00    702.0    999.0    999000   999000   999.0    999000   999.0
 179   16:10   63.0    24    5.4   325     8.9   999.00    702.0    999.0    999000   999000   999.0    999000   999.0
 179   16:15   64.7    26    5.3   317    13.7   999.00    702.0    999.0    999000   999000   999.0    999000   999.0
 179   16:20   64.5    24    8.7   298    12.0   999.00    702.0    999.0    999000   999000   999.0    999000   999.0
 179   16:25   64.4    25    7.0   299    10.9   999.00    702.0    999.0    999000   999000   999.0    999000   999.0
 179   16:30   64.7    24    4.9   302     8.5   999.00    702.0    999.0    999000   999000   999.0    999000   999.0
 179   16:35   65.4    25    5.8   304    10.9   999.00    702.0    999.0    999000   999000   999.0    999000   999.0
 179   16:40   64.8    25    5.2   303     8.9   999.00    702.0    999.0    999000   999000   999.0    999000   999.0
 179   16:45   65.4    24   10.7   289    15.8   999.00    702.0    999.0    999000   999000   999.0    999000   999.0
 179   16:50   64.1    25    7.9   291    13.7   999.00    702.0    999.0    999000   999000   999.0    999000   999.0
 179   16:55   64.7    23   10.6   299    14.3   999.00    702.0    999.0    999000   999000   999.0    999000   999.0
 179   17:00   64.4    23   11.5   309    17.2   999.00    702.0    999.0    999000   999000   999.0    999000   999.0
 179   17:05   64.1    23   11.9   305    16.1   999.00    702.0    999.0    999000   999000   999.0    999000   999.0
 179   17:10   64.0    22   11.8   320    15.9   999.00    702.0    999.0    999000   999000   999.0    999000   999.0
 179   17:15   63.7    21   12.9   314    18.9   999.00    702.0    999.0    999000   999000   999.0    999000   999.0
 179   17:20   63.5    22   12.1   320    18.4   999.00    702.0    999.0    999000   999000   999.0    999000   999.0
 179   17:25   63.9    22   11.0   321    15.9   999.00    702.0    999.0    999000   999000   999.0    999000   999.0
 179   17:30   63.9    22    9.0   329    16.9   999.00    702.0    999.0    999000   999000   999.0    999000   999.0
 179   17:35   63.7    22   10.3   317    15.8   999.00    702.0    999.0    999000   999000   999.0    999000   999.0
 179   17:40   63.1    21   11.2   316    14.4   999.00    702.0    999.0    999000   999000   999.0    999000   999.0
 179   17:45   63.0    22   11.4   314    13.7   999.00    702.0    999.0    999000   999000   999.0    999000   999.0
 179   17:50   63.1    23    9.9   317    14.6   999.00    702.0    999.0    999000   999000   999.0    999000   999.0
 179   17:55   63.1    24    9.8   314    14.4   999.00    702.0    999.0    999000   999000   999.0    999000   999.0
 179   18:00   63.0    23    8.2   329    13.2   999.00    702.0    999.0    999000   999000   999.0    999000   999.0
 179   18:05   63.1    23    7.6   320    11.3   999.00    702.0    999.0    999000   999000   999.0    999000   999.0
 179   18:10   62.9    22    7.5   315    10.2   999.00    702.0    999.0    999000   999000   999.0    999000   999.0
 179   18:15   62.8    23    7.7   313    11.8   999.00    702.0    999.0    999000   999000   999.0    999000   999.0
 179   18:20   62.7    23    8.1   311    12.2   999.00    702.0    999.0    999000   999000   999.0    999000   999.0
 179   18:25   62.7    24    7.6   317    10.6   999.00    702.0    999.0    999000   999000   999.0    999000   999.0
 179   18:30   62.3    23    7.9   317    10.9   999.00    702.0    999.0    999000   999000   999.0    999000   999.0
 179   18:35   62.1    24    7.2   321    10.9   999.00    702.0    999.0    999000   999000   999.0    999000   999.0
 179   18:40   62.1    24    6.0   323     8.9   999.00    702.0    999.0    999000   999000   999.0    999000   999.0
 179   18:45   62.0    24    4.4   325     5.3   999.00    702.0    999.0    999000   999000   999.0    999000   999.0
 179   18:50   62.0    24    5.7   316     7.9   999.00    702.0    999.0    999000   999000   999.0    999000   999.0
 179   18:55   61.8    25    4.3   314     5.7   999.00    702.0    999.0    999000   999000   999.0    999000   999.0
 179   19:00   61.6    25    4.5   315     5.5   999.00    702.0    999.0    999000   999000   999.0    999000   999.0
 179   19:05   61.5    25    4.4   316     6.1   999.00    702.0    999.0    999000   999000   999.0    999000   999.0
 179   19:10   61.1    25    4.4   315     5.5   999.00    702.0    999.0    999000   999000   999.0    999000   999.0
 179   19:15   60.8    25    3.8   316     4.6   999.00    702.0    999.0    999000   999000   999.0    999000   999.0
 179   19:20   60.7    25    3.6   314     5.0   999.00    702.0    999.0    999000   999000   999.0    999000   999.0
 179   19:25   60.5    24    3.1   317     4.2   999.00    702.0    999.0    999000   999000   999.0    999000   999.0
 179   19:30   59.9    26    3.1   317     3.8   999.00    702.0    999.0    999000   999000   999.0    999000   999.0
 179   19:35   59.7    25    2.2   317     3.1   999.00    702.0    999.0    999000   999000   999.0    999000   999.0
 179   19:40   59.3    26    2.6   318     3.5   999.00    702.0    999.0    999000   999000   999.0    999000   999.0
 179   19:45   58.7    26    2.0   318     2.9   999.00    702.0    999.0    999000   999000   999.0    999000   999.0
 179   19:50   58.2    26    1.8   317     1.8   999.00    702.0    999.0    999000   999000   999.0    999000   999.0
 179   19:55   58.1    26    1.8   317     1.8   999.00    702.0    999.0    999000   999000   999.0    999000   999.0
 179   20:00   57.9    27    1.8   318     1.8   999.00    702.0    999.0    999000   999000   999.0    999000   999.0
 179   20:05   57.8    27    1.8   318     1.8   999.00    702.0    999.0    999000   999000   999.0    999000   999.0
 179   20:10   58.0    26    1.8   318     1.8   999.00    702.0    999.0    999000   999000   999.0    999000   999.0
 179   20:15   58.1    24    2.4   327     5.0   999.00    702.0    999.0    999000   999000   999.0    999000   999.0
 179   20:20   58.1    25    1.9   327     3.3   999.00    702.0    999.0    999000   999000   999.0    999000   999.0
 179   20:25   57.9    25    4.1     3     6.1   999.00    702.0    999.0    999000   999000   999.0    999000   999.0
 179   20:30   58.0    25    4.5    33     6.3   999.00    702.0    999.0    999000   999000   999.0    999000   999.0
 179   20:35   57.9    24    5.6    37     7.8   999.00    702.0    999.0    999000   999000   999.0    999000   999.0
 179   20:40   57.7    24    6.9    46    10.0   999.00    702.0    999.0    999000   999000   999.0    999000   999.0
 179   20:45   57.8    24    7.2    50    10.4   999.00    702.0    999.0    999000   999000   999.0    999000   999.0
 179   20:50   57.7    24    5.7    52     8.9   999.00    702.0    999.0    999000   999000   999.0    999000   999.0
 179   20:55   57.7    24    7.7    57    10.4   999.00    702.0    999.0    999000   999000   999.0    999000   999.0
 179   21:00   57.7    24    9.3    59    11.5   999.00    702.0    999.0    999000   999000   999.0    999000   999.0
 179   21:05   57.7    24    7.9    58    12.2   999.00    702.0    999.0    999000   999000   999.0    999000   999.0
 179   21:10   57.7    24   10.6    60    12.6   999.00    702.0    999.0    999000   999000   999.0    999000   999.0
 179   21:15   57.8    24    9.1    50    11.7   999.00    702.0    999.0    999000   999000   999.0    999000   999.0
 179   21:20   57.5    24    7.8    46    11.3   999.00    702.0    999.0    999000   999000   999.0    999000   999.0
 179   21:25   57.4    24    8.1    50    12.8   999.00    702.0    999.0    999000   999000   999.0    999000   999.0
 179   21:30   57.3    24    8.7    60    12.2   999.00    702.0    999.0    999000   999000   999.0    999000   999.0
 179   21:35   57.4    24    8.6    63    13.7   999.00    702.0    999.0    999000   999000   999.0    999000   999.0
 179   21:40   57.3    24    8.8    61    13.7   999.00    702.0    999.0    999000   999000   999.0    999000   999.0
 179   21:45   57.4    23    8.8    59    12.4   999.00    702.0    999.0    999000   999000   999.0    999000   999.0
 179   21:50   57.4    23    8.9    60    13.0   999.00    702.0    999.0    999000   999000   999.0    999000   999.0
 179   21:55   57.5    23    7.8    54    12.4   999.00    702.0    999.0    999000   999000   999.0    999000   999.0
 179   22:00   57.1    23    8.0    56    11.8   999.00    702.0    999.0    999000   999000   999.0    999000   999.0
 179   22:05   56.6    24    7.9    61    10.7   999.00    702.0    999.0    999000   999000   999.0    999000   999.0
 179   22:10   56.4    24   10.1    73    14.1   999.00    702.0    999.0    999000   999000   999.0    999000   999.0
 179   22:15   56.3    25   11.7    70    15.4   999.00    702.0    999.0    999000   999000   999.0    999000   999.0
 179   22:20   56.3    25   11.2    71    15.6   999.00    702.0    999.0    999000   999000   999.0    999000   999.0
 179   22:25   56.3    25   11.4    69    13.9   999.00    702.0    999.0    999000   999000   999.0    999000   999.0
 179   22:30   56.3    25   10.3    72    14.4   999.00    702.0    999.0    999000   999000   999.0    999000   999.0
 179   22:35   56.2    25   10.5    70    13.9   999.00    702.0    999.0    999000   999000   999.0    999000   999.0
 179   22:40   56.2    25   10.9    73    14.4   999.00    702.0    999.0    999000   999000   999.0    999000   999.0
 179   22:45   56.3    25   10.6    72    13.2   999.00    702.0    999.0    999000   999000   999.0    999000   999.0
 179   22:50   56.1    25   10.0    69    12.6   999.00    702.0    999.0    999000   999000   999.0    999000   999.0
 179   22:55   55.9    26    9.6    65    11.7   999.00    702.0    999.0    999000   999000   999.0    999000   999.0
 179   23:00   56.1    25    9.8    64    11.3   999.00    702.0    999.0    999000   999000   999.0    999000   999.0
 179   23:05   56.9    23    9.4    62    10.9   999.00    702.0    999.0    999000   999000   999.0    999000   999.0
 179   23:10   57.2    23    9.4    64    11.5   999.00    702.0    999.0    999000   999000   999.0    999000   999.0
 179   23:15   57.1    23    8.8    65    10.4   999.00    702.0    999.0    999000   999000   999.0    999000   999.0
 179   23:20   57.0    23    8.4    64    10.0   999.00    702.0    999.0    999000   999000   999.0    999000   999.0
 179   23:25   56.9    23    7.6    65     9.1   999.00    702.0    999.0    999000   999000   999.0    999000   999.0
 179   23:30   56.9    23    7.4    71     9.8   999.00    702.0    999.0    999000   999000   999.0    999000   999.0
 179   23:35   57.1    23    8.2    71    11.3   999.00    702.0    999.0    999000   999000   999.0    999000   999.0
 179   23:40   57.2    22    7.5    80    11.3   999.00    702.0    999.0    999000   999000   999.0    999000   999.0
 179   23:45   57.3    22    6.8    85    10.4   999.00    702.0    999.0    999000   999000   999.0    999000   999.0
 179   23:50   57.1    22    6.7    97     8.9   999.00    702.0    999.0    999000   999000   999.0    999000   999.0
 179   23:55   56.7    23    6.7   100     9.2   999.00    702.0    999.0    999000   999000   999.0    999000   999.0
 180    0:00   56.4    24    6.5   107     8.9   999.00    702.0    999.0    999000   999000   999.0    999000   999.0
 180    0:05   56.4    24    6.4   104     8.5   999.00    702.0    999.0    999000   999000   999.0    999000   999.0
 180    0:10   56.4    24    4.4   115     7.6   999.00    702.0    999.0    999000   999000   999.0    999000   999.0
 180    0:15   56.3    24    3.2   109     5.0   999.00    702.0    999.0    999000   999000   999.0    999000   999.0
 180    0:20   56.3    24    2.8   108     5.0   999.00    702.0    999.0    999000   999000   999.0    999000   999.0
 180    0:25   56.2    24    3.2   109     5.0   999.00    702.0    999.0    999000   999000   999.0    999000   999.0
 180    0:30   56.0    24    3.5   107     6.5   999.00    702.0    999.0    999000   999000   999.0    999000   999.0
 180    0:35   56.0    24    2.7    99     5.0   999.00    702.0    999.0    999000   999000   999.0    999000   999.0
 180    0:40   55.8    24    2.8   102     4.8   999.00    702.0    999.0    999000   999000   999.0    999000   999.0
 180    0:45   55.5    24    4.6   103     7.4   999.00    702.0    999.0    999000   999000   999.0    999000   999.0
 180    0:50   55.3    25    3.9   104     8.3   999.00    702.0    999.0    999000   999000   999.0    999000   999.0
 180    0:55   55.1    25    3.7   105     7.6   999.00    702.0    999.0    999000   999000   999.0    999000   999.0
 180    1:00   54.8    25    3.7   117     7.4   999.00    702.0    999.0    999000   999000   999.0    999000   999.0
 180    1:05   54.8    25    4.3   116     7.8   999.00    702.0    999.0    999000   999000   999.0    999000   999.0
 180    1:10   54.9    25    4.6   110    10.6   999.00    702.0    999.0    999000   999000   999.0    999000   999.0
 180    1:15   54.8    25    4.2   113     7.4   999.00    702.0    999.0    999000   999000   999.0    999000   999.0
 180    1:20   54.6    25    4.7   112     8.9   999.00    702.0    999.0    999000   999000   999.0    999000   999.0
 180    1:25   54.7    26    4.7   117    10.7   999.00    702.0    999.0    999000   999000   999.0    999000   999.0
 180    1:30   54.5    28    4.8   115    10.4   999.00    702.0    999.0    999000   999000   999.0    999000   999.0
 180    1:35   54.4    33    4.7   114    10.9   999.00    702.0    999.0    999000   999000   999.0    999000   999.0
 180    1:40   54.3    34    4.2   116     7.8   999.00    701.0    999.0    999000   999000   999.0    999000   999.0
 180    1:45   54.0    34    4.6   116     7.9   999.00    701.0    999.0    999000   999000   999.0    999000   999.0
 180    1:50   53.8    35    5.2   116    10.6   999.00    702.0    999.0    999000   999000   999.0    999000   999.0
 180    1:55   53.6    36    4.5   118     9.8   999.00    701.0    999.0    999000   999000   999.0    999000   999.0
 180    2:00   53.6    39    4.9   111    11.1   999.00    702.0    999.0    999000   999000   999.0    999000   999.0
 180    2:05   53.5    40    5.5   116    12.6   999.00    701.0    999.0    999000   999000   999.0    999000   999.0
 180    2:10   53.6    41    4.2   114     9.8   999.00    701.0    999.0    999000   999000   999.0    999000   999.0
 180    2:15   53.6    40    5.1   118    11.1   999.00    701.0    999.0    999000   999000   999.0    999000   999.0
 180    2:20   53.8    40    3.5   117     5.5   999.00    701.0    999.0    999000   999000   999.0    999000   999.0
 180    2:25   54.0    38    4.5   119     6.8   999.00    701.0    999.0    999000   999000   999.0    999000   999.0
 180    2:30   54.2    36    5.6   118     9.4   999.00    701.0    999.0    999000   999000   999.0    999000   999.0
 180    2:35   54.3    36    5.2   120     9.4   999.00    701.0    999.0    999000   999000   999.0    999000   999.0
 180    2:40   54.0    38    8.1   122    10.6   999.00    701.0    999.0    999000   999000   999.0    999000   999.0
 180    2:45   53.8    39    7.9   122    10.2   999.00    701.0    999.0    999000   999000   999.0    999000   999.0
 180    2:50   53.6    39    6.1   120    10.2   999.00    701.0    999.0    999000   999000   999.0    999000   999.0
 180    2:55   53.6    38    7.6   122    10.6   999.00    701.0    999.0    999000   999000   999.0    999000   999.0
 180    3:00   53.6    39    8.2   122    11.8   999.00    701.0    999.0    999000   999000   999.0    999000   999.0
 180    3:05   53.3    41    6.5   119    11.3   999.00    701.0    999.0    999000   999000   999.0    999000   999.0
 180    3:10   53.1    42    6.1   118     9.4   999.00    701.0    999.0    999000   999000   999.0    999000   999.0
 180    3:15   53.0    41    4.9   117     8.3   999.00    701.0    999.0    999000   999000   999.0    999000   999.0
 180    3:20   53.0    41    5.5   116     8.9   999.00    701.0    999.0    999000   999000   999.0    999000   999.0
 180    3:25   53.0    40    5.9   117     9.6   999.00    701.0    999.0    999000   999000   999.0    999000   999.0
 180    3:30   53.1    39    5.2   116     8.3   999.00    701.0    999.0    999000   999000   999.0    999000   999.0
 180    3:35   53.0    39    5.2   116     8.5   999.00    701.0    999.0    999000   999000   999.0    999000   999.0
 180    3:40   53.2    37    6.4   119     8.5   999.00    701.0    999.0    999000   999000   999.0    999000   999.0
 180    3:45   53.3    36    6.7   119     9.6   999.00    701.0    999.0    999000   999000   999.0    999000   999.0
 180    3:50   53.4    34    6.2   119    10.7   999.00    701.0    999.0    999000   999000   999.0    999000   999.0
 180    3:55   53.6    34    7.3   121    10.0   999.00    701.0    999.0    999000   999000   999.0    999000   999.0
 180    4:00   53.6    33    5.8   120     9.2   999.00    701.0    999.0    999000   999000   999.0    999000   999.0
 180    4:05   53.7    32    7.5   122    10.6   999.00    701.0    999.0    999000   999000   999.0    999000   999.0
 180    4:10   53.5    33    4.9   118     8.7   999.00    701.0    999.0    999000   999000   999.0    999000   999.0
 180    4:15   53.5    33    4.0   118     7.4   999.00    701.0    999.0    999000   999000   999.0    999000   999.0
 180    4:20   53.6    32    5.1   119     7.9   999.00    701.0    999.0    999000   999000   999.0    999000   999.0
 180    4:25   53.6    32    6.8   122     9.2   999.00    701.0    999.0    999000   999000   999.0    999000   999.0
 180    4:30   53.5    32    8.0   124    10.4   999.00    701.0    999.0    999000   999000   999.0    999000   999.0
 180    4:35   53.7    32    7.3   126     9.1   999.00    701.0    999.0    999000   999000   999.0    999000   999.0
 180    4:40   53.8    32    8.9   131    10.4   999.00    701.0    999.0    999000   999000   999.0    999000   999.0
 180    4:45   54.4    30    7.9   135     9.8   999.00    701.0    999.0    999000   999000   999.0    999000   999.0
 180    4:50   54.4    31    7.2   127     8.5   999.00    701.0    999.0    999000   999000   999.0    999000   999.0
 180    4:55   54.3    31    7.4   124     9.1   999.00    701.0    999.0    999000   999000   999.0    999000   999.0
 180    5:00   54.4    31    5.8   121     7.8   999.00    701.0    999.0    999000   999000   999.0    999000   999.0
 180    5:05   54.5    30    5.7   121     7.9   999.00    701.0    999.0    999000   999000   999.0    999000   999.0
 180    5:10   54.5    32    5.7   122     7.2   999.00    701.0    999.0    999000   999000   999.0    999000   999.0
 180    5:15   54.6    32    5.1   120     7.0   999.00    701.0    999.0    999000   999000   999.0    999000   999.0
 180    5:20   54.8    32    5.5   122     6.3   999.00    702.0    999.0    999000   999000   999.0    999000   999.0
 180    5:25   55.0    32    6.1   123     8.5   999.00    702.0    999.0    999000   999000   999.0    999000   999.0

Return to DRI Storm Peak Lab. graphs page.


Western Regional Climate Center,wrcc@dri.edu